This is the latest recevied weather packets stored in our database for station/object SR5NLK-1. If no packets are shown the sender has not sent any weather packets the latest 1 day(s).
| Time | Temp. | Humidity | Pressure | Rain* | Wind** | Luminosity | Snow |
|---|---|---|---|---|---|---|---|
| 1778114849 | 15° C | 78% | 1045.9 hPa | 0 mm | - | - | - |
| 1778114549 | 15° C | 78% | 1058.5 hPa | 0 mm | - | - | - |
| 1778113949 | 15° C | 77% | 888 hPa | 0 mm | - | - | - |
| 1778113828 | 15° C | 77% | 962.3 hPa | 0 mm | - | - | - |
| 1778113649 | 15.56° C | 76% | 1058.5 hPa | 0 mm | - | - | - |
| 1778113349 | 15.56° C | 75% | 990.1 hPa | 0 mm | - | - | - |
| 1778113049 | 15.56° C | 74% | 1001 hPa | 0 mm | - | - | - |
| 1778112749 | 16.11° C | 72% | 1042.8 hPa | 0 mm | - | - | - |
| 1778112450 | 16.67° C | 70% | 1055.3 hPa | 0 mm | - | - | - |
| 1778099850 | 17.22° C | 61% | 1001 hPa | 0 mm | - | - | - |
| 1778096850 | 18.33° C | 57% | 1052.2 hPa | 0 mm | - | - | - |
| 1778096550 | 18.33° C | 57% | 968.6 hPa | 0 mm | - | - | - |
| 1778096009 | 18.89° C | 56% | 1062.5 hPa | 0 mm | - | - | - |
| 1778095950 | 18.89° C | 56% | 1052.1 hPa | 0 mm | - | - | - |
| 1778095050 | 18.89° C | 55% | 1102 hPa | 0 mm | - | - | - |
| 1778094450 | 19.44° C | 54% | 1042.8 hPa | 0 mm | - | - | - |
| 1778094029 | 19.44° C | 53% | 1046 hPa | 0 mm | - | - | - |
| 1778093850 | 19.44° C | 53% | 1046 hPa | 0 mm | - | - | - |
| 1778093550 | 20° C | 52% | 1109.7 hPa | 0 mm | - | - | - |
| 1778093250 | 20° C | 51% | 1007.3 hPa | 0 mm | - | - | - |
| 1778092950 | 20° C | 51% | 1090.9 hPa | 0 mm | - | - | - |
| 1778092650 | 20.56° C | 50% | 1042.8 hPa | 0 mm | - | - | - |
| 1778092350 | 20.56° C | 50% | 1094.1 hPa | 0 mm | - | - | - |
| 1778091750 | 21.11° C | 49% | 1087.8 hPa | 0 mm | - | - | - |
| 1778091450 | 21.11° C | 48% | 965.4 hPa | 0 mm | - | - | - |
* Rain latest hour (hover to see other rain measurements)
** Current wind speed in m/s (hover to see current wind gust speed)